User: anonymous   Login
Location: Northam
(31.6525°S, 116.6655°E)
Time: 16:53:15
(UTC+08:00)
Language:

Tiros 1 despin weight - Orbit

View from above orbital plane
View from above orbital plane
View from above satellite
View from above satellite

Ground track
Ground track

The orbit data is extracted from the following two-line orbital elements,

1 00115U 60002D   21165.77333233  .00000018  00000-0  29272-4 0  9996
2 00115  48.1673 331.7445 0034039  45.8048 314.5652 14.83777980245611
Epoch (UTC): 14 June 2021 18:33:35
Eccentricity: 0.0034039
inclination: 48.1673°
perigee height: 593 km
apogee height: 641 km
right ascension of ascending node: 331.7445°
argument of perigee: 45.8048°
revolutions per day: 14.83777980
mean anomaly at epoch: 314.5652°
orbit number at epoch: 24561

The dashed part of the orbit path shows where the satellite is in the earth's shadow,  

DLR